Millington, TN

1:43 AM CDT on July 29, 2016 (GMT -0500)
Millington Municipal

Weather History for KNQA - January, 2013

Change the Weather History Date:

Thursday, January 31, 2013

  Actual Average Record
Temperature  
Mean Temperature 40 °F -  
Max Temperature 53 °F 49 °F 71 °F (2016)
Min Temperature 28 °F 33 °F 32 °F (2015)
Degree Days  
Heating Degree Days 24    
Moisture  
Dew Point 27 °F    
Average Humidity 71    
Maximum Humidity 87    
Minimum Humidity 43    
Precipitation  
Precipitation 0.00 in - - ()
Sea Level Pressure  
Sea Level Pressure 30.11 in    
Wind  
Wind Speed 7 mph (WSW)    
Max Wind Speed 16 mph    
Max Gust Speed -    
Visibility 10 miles    
Events Snow    
Averages and records for this station are not official NWS values.
T = Trace of Precipitation, MM = Missing Value Source: NWS Daily Summary

Daily Weather History Graph

Daily Weather History Graph

Search for Another Location

Airport or City:

Trip Planner

Search our weather history database for the weather conditions in past years. The results will help you decide how hot, cold, wet, or windy it might be!

Date:

Astronomy

Jan. 31, 2013 Rise Set
Actual Time 6:59 AM CST 5:26 PM CST
Civil Twilight 6:32 AM CST 5:53 PM CST
Nautical Twilight 6:02 AM CST 6:24 PM CST
Astronomical Twilight 5:32 AM CST 6:54 PM CST
Moon 10:15 PM CST (1/31) 9:11 AM CST (1/31)
Length of Visible Light 11h 20m
Length of Day
10h 27m
Waning Gibbous, 79% of the Moon is Illuminated
Jan 31
Waning Gibbous
Feb 3
Last Quarter
Feb 10
New
Feb 17
First Quarter
Feb 25
Full

Hourly Weather History & Observations

Time (CST) Temp. Windchill Dew Point Humidity Pressure Visibility Wind Dir Wind Speed Gust Speed Precip Events Conditions
12:55 AM 32.0 °F 24.8 °F 24.8 °F 75% 30.04 in 10.0 mi West 8.1 mph - N/A   Clear
1:55 AM 30.2 °F 22.6 °F 24.8 °F 80% 30.05 in 10.0 mi West 8.1 mph - N/A   Clear
2:15 AM 30.2 °F 25.4 °F 23.0 °F 75% 30.05 in 10.0 mi West 4.6 mph - N/A   Clear
2:35 AM 30.2 °F 24.3 °F 23.0 °F 75% 30.06 in 10.0 mi WSW 5.8 mph - N/A   Clear
2:55 AM 28.4 °F 23.3 °F 23.0 °F 80% 30.06 in 10.0 mi WSW 4.6 mph - N/A   Clear
3:15 AM 30.2 °F 24.3 °F 24.8 °F 80% 30.06 in 10.0 mi SW 5.8 mph - N/A   Clear
3:35 AM 28.4 °F 22.2 °F 24.8 °F 86% 30.05 in 10.0 mi SW 5.8 mph - N/A   Clear
3:55 AM 28.4 °F - 24.8 °F 86% 30.05 in 10.0 mi Calm Calm - N/A   Clear
4:15 AM 28.4 °F 23.3 °F 24.8 °F 86% 30.06 in 10.0 mi WSW 4.6 mph - N/A   Clear
4:35 AM 28.4 °F 22.2 °F 24.8 °F 86% 30.06 in 10.0 mi WSW 5.8 mph - N/A   Clear
4:55 AM 28.4 °F - 24.8 °F 86% 30.06 in 10.0 mi Calm Calm - N/A   Clear
5:55 AM 28.4 °F 22.2 °F 24.8 °F 86% 30.10 in 10.0 mi SW 5.8 mph - N/A   Clear
6:55 AM 28.4 °F 24.6 °F 23.0 °F 80% 30.12 in 10.0 mi SW 3.5 mph - N/A   Clear
7:55 AM 30.2 °F 24.3 °F 26.6 °F 86% 30.15 in 10.0 mi WSW 5.8 mph - N/A   Clear
8:55 AM 35.6 °F 29.2 °F 26.6 °F 70% 30.17 in 10.0 mi WSW 8.1 mph - N/A   Clear
9:55 AM 39.2 °F 32.5 °F 26.6 °F 61% 30.18 in 10.0 mi SSW 10.4 mph - N/A   Clear
10:55 AM 42.8 °F 36.6 °F 26.6 °F 53% 30.17 in 10.0 mi SW 11.5 mph - N/A   Clear
11:55 AM 44.6 °F 40.7 °F 26.6 °F 49% 30.14 in 10.0 mi Variable 6.9 mph - N/A   Clear
12:55 PM 48.2 °F - 26.6 °F 43% 30.10 in 10.0 mi SSW 10.4 mph - N/A   Clear
1:55 PM 51.8 °F - 30.2 °F 44% 30.07 in 10.0 mi SW 11.5 mph - N/A   Clear
2:55 PM 51.8 °F - 33.8 °F 50% 30.06 in 10.0 mi SSW 12.7 mph - N/A   Partly Cloudy
3:55 PM 53.6 °F - 33.8 °F 47% 30.07 in 10.0 mi SSW 13.8 mph - N/A   Partly Cloudy
4:55 PM 51.8 °F - 33.8 °F 50% 30.08 in 10.0 mi SW 10.4 mph - N/A   Partly Cloudy
5:55 PM 48.2 °F - 33.8 °F 58% 30.09 in 10.0 mi SW 6.9 mph - N/A   Scattered Clouds
6:55 PM 46.4 °F 44.3 °F 35.6 °F 66% 30.11 in 10.0 mi NW 4.6 mph - N/A   Mostly Cloudy
8:55 PM 39.2 °F 32.5 °F 32.0 °F 75% 30.22 in 10.0 mi NNW 10.4 mph - N/A   Overcast
9:55 PM 35.6 °F 26.2 °F 32.0 °F 87% 30.28 in 10.0 mi NW 15.0 mph - N/A   Mostly Cloudy
10:20 PM 33.8 °F 23.5 °F 30.2 °F 87% 30.31 in 7.0 mi NNW 16.1 mph - N/A Snow Light Snow
10:55 PM 30.2 °F 20.2 °F 24.8 °F 80% 30.31 in 7.0 mi NW 12.7 mph - N/A Snow Light Snow